• MPC Preparation (Info)

  • MPEC 2010-M25 : 2010 MW

    The following Minor Planet Electronic Circular may be linked-to from your own Web pages, but must not otherwise be redistributed electronically.

    A form allowing access to any MPEC is at the bottom of this page.


    Read MPEC 2010-M24 Read MPEC 2010-M26


    M.P.E.C. 2010-M25                                Issued 2010 June 19, 16:49 UT
    
         The Minor Planet Electronic Circulars contain information on unusual
             minor planets and routine data on comets.  They are published
       on behalf of Commission 20 of the International Astronomical Union by the
              Minor Planet Center, Smithsonian Astrophysical Observatory,
                              Cambridge, MA 02138, U.S.A.
    
                 Prepared using the Tamkin Foundation Computer Network
    
                                  MPC@CFA.HARVARD.EDU
           URL https://www.minorplanetcenter.org/iau/mpc.html  ISSN 1523-6714
    
                                        2010 MW
    
    Observations:
         K10M00W* C2010 06 18.26816 16 28 14.26 -11 56 18.7          20.0 V EM025G96
         K10M00W  C2010 06 18.28268 16 28 13.00 -11 55 59.9          19.9 V EM025G96
         K10M00W  C2010 06 18.28995 16 28 12.43 -11 55 50.7          19.8 V EM025G96
         K10M00W  C2010 06 18.32400 16 28 09.47 -11 55 05.7          20.1 V EM025G96
         K10M00W  C2010 06 18.32460 16 28 09.40 -11 55 05.0          20.0 V EM025G96
         K10M00W  C2010 06 18.32520 16 28 09.36 -11 55 04.0          19.9 V EM025G96
         K10M00W  C2010 06 18.32580 16 28 09.34 -11 55 03.4          20.1 V EM025G96
         K10M00W VC2010 06 18.33403516 28 08.42 -11 54 53.2                 EM025H21
         K10M00W  C2010 06 18.33516 16 28 08.49 -11 54 51.0          20.1 R EM025H01
         K10M00W VC2010 06 18.33591216 28 08.24 -11 54 50.3          20.8 V EM025H21
         K10M00W VC2010 06 18.33794516 28 08.07 -11 54 47.9          20.6 V EM025H21
         K10M00W  C2010 06 18.34028 16 28 08.05 -11 54 44.3          20.1 R EM025H01
         K10M00W  C2010 06 18.34738 16 28 07.45 -11 54 34.9          20.2 R EM025H01
         K10M00W  C2010 06 18.35555 16 28 06.76 -11 54 24.3          20.2 R EM025H01
         K10M00W 6C2010 06 18.42226 16 28 01.53 -11 52 55.5          20.8 V EM025F65
         K10M00W 6C2010 06 18.42330 16 28 01.44 -11 52 54.2          20.7 V EM025F65
         K10M00W 6C2010 06 18.42433 16 28 01.36 -11 52 52.9          20.8 V EM025F65
         K10M00W tC2010 06 19.16726 16 27 01.61 -11 36 45.4                 EM025291
         K10M00W tC2010 06 19.17102 16 27 01.25 -11 36 40.6                 EM025291
         K10M00W tC2010 06 19.17512 16 27 00.91 -11 36 35.1                 EM025291
         K10M00W  C2010 06 19.17673 16 27 00.75 -11 36 33.1          20.2 R EM025H01
         K10M00W  C2010 06 19.18426 16 27 00.12 -11 36 23.3          20.1 R EM025H01
         K10M00W  C2010 06 19.19326 16 26 59.36 -11 36 11.5          20.0 R EM025H01
         K10M00W  C2010 06 19.20164 16 26 58.65 -11 36 00.7          19.8 R EM025H01
         K10M00W  C2010 06 19.28841 16 26 51.36 -11 34 07.4          20.9 R EM025926
         K10M00W  C2010 06 19.29216 16 26 51.07 -11 34 01.9          20.8 R EM025926
         K10M00W  C2010 06 19.29590 16 26 50.71 -11 33 58.3          20.6 R EM025926
    
    Observer details:
    291 LPL/Spacewatch II.  Observer T. H. Bressi.  1.8-m f/2.7 reflector + CCD.
    926 Tenagra II Observatory.  Observers P. R. Holvorcem, M. Schwartz.  Measurer
        P. R. Holvorcem.  0.81-m f/7 Ritchey-Chretien + CCD.
    F65 Haleakala-Faulkes Telescope North.  Observer R. Miles.  2.0-m f/10.0
        Ritchey-Chretien + CCD.
    G96 Mt. Lemmon Survey.  Observer A. Boattini.  Measurers J. D. Ahern,
        E. C. Beshore, A. Boattini, G. J. Garradd, A. R. Gibbs, A. D. Grauer,
        R. E. Hill, R. A. Kowalski, S. M. Larson, R. H. McNaught.  1.5-m reflector
        + CCD.
    H01 Magdalena Ridge Observatory, Socorro.  Observer W. H. Ryan.  2.4-m f/8.9
        reflector + CCD.
    H21 Astronomical Research Observatory, Westfield.  Observer R. Holmes.
        Measurer S. Foglia.
    
    Orbital elements:
    2010 MW                                                  Earth MOID = 0.3827 AU
    Epoch 2010 July 23.0 TT = JDT 2455400.5                 MPC
    M 322.39968              (2000.0)            P               Q
    n   0.33968498     Peri.  107.24999     +0.94019701     +0.12422757
    a   2.0343163      Node   246.58132     -0.20842975     +0.94627608
    e   0.3980810      Incl.   20.22104     +0.26941903     +0.29854495
    P   2.90           H   19.0           G   0.15           U   9
    Residuals in seconds of arc
    100618 G96  0.2+  0.2+    100618 H21  0.8-  0.2+    100619 291  0.4-  0.3-
    100618 G96  0.0   0.0     100618 H21  0.8-  0.1-    100619 291  0.3-  0.1-
    100618 G96  0.8+  0.3-    100618 H01  0.1+  0.1+    100619 H01  0.1+  0.2+
    100618 G96  0.1+  0.0     100618 H01  0.1+  0.2+    100619 H01  0.2+  0.2+
    100618 G96  0.2-  0.1-    100618 H01  0.2+  0.1+    100619 H01  0.2+  0.3+
    100618 G96  0.0   0.1+    100618 F65  0.1+  0.0     100619 H01  0.1+  0.3+
    100618 G96  0.5+  0.1-    100618 F65  0.1+  0.0     100619 926  0.2+  0.3+
    100618 H21  0.5-  0.2-    100618 F65  0.2+  0.1-    100619 926  0.6+  0.9+
    100618 H01  0.1+  0.2+    100619 291  0.3+  0.2-    100619 926  0.0   0.4-
    
    Ephemeris:
    2010 MW                  a,e,i = 2.03, 0.40, 20                  q = 1.2245
    Date    TT    R. A. (2000) Decl.     Delta      r     Elong.  Phase     V
    2010 06 13    16 35.65   -13 52.0    0.797    1.798   165.2     8.3    20.4
    2010 06 23    16 22.05   -10 14.6    0.782    1.745   152.0    15.9    20.5
    2010 07 03    16 11.29   -06 57.3    0.787    1.693   139.3    23.1    20.7
    2010 07 13    16 04.69   -04 14.7    0.809    1.641   127.7    29.4    20.9
    2010 07 23    16 02.83   -02 11.5    0.839    1.589   117.5    34.5    21.1
    2010 08 02    16 05.67   -00 44.6    0.875    1.538   108.8    38.7    21.2
    2010 08 12    16 12.88   +00 12.0    0.911    1.489   101.3    41.9    21.3
    2010 08 22    16 24.10   +00 45.7    0.944    1.442    94.9    44.4    21.4
    2010 09 01    16 38.93   +01 03.3    0.972    1.397    89.6    46.3    21.4
    2010 09 11    16 57.10   +01 10.3    0.996    1.356    85.2    47.7    21.4
    2010 09 21    17 18.43   +01 11.9    1.013    1.319    81.6    48.9    21.5
    2010 10 01    17 42.76   +01 12.1    1.025    1.287    78.8    49.8    21.5
    2010 10 11    18 10.02   +01 14.1    1.033    1.261    76.7    50.4    21.4
    2010 10 21    18 40.15   +01 21.2    1.038    1.241    75.2    50.9    21.4
    2010 10 31    19 12.99   +01 35.5    1.043    1.229    74.2    51.0    21.4
    2010 11 10    19 48.33   +01 59.1    1.051    1.225    73.6    50.9    21.4
    2010 11 20    20 25.79   +02 33.1    1.065    1.228    73.4    50.4    21.5
    2010 11 30    21 04.79   +03 17.7    1.087    1.239    73.2    49.7    21.5
    2010 12 10    21 44.65   +04 12.2    1.121    1.257    73.0    48.5    21.6
    2010 12 20    22 24.58   +05 14.8    1.167    1.283    72.6    47.1    21.7
    2010 12 30    23 03.85   +06 23.0    1.227    1.314    72.0    45.4    21.8
    2011 01 09    23 41.93   +07 34.1    1.301    1.350    70.9    43.5    21.9
    2011 01 19    00 18.44   +08 45.7    1.387    1.391    69.5    41.5    22.1
    2011 01 29    00 53.22   +09 55.1    1.485    1.435    67.6    39.4    22.2
    2011 02 08    01 26.28   +11 00.9    1.592    1.482    65.3    37.2    22.4
    2011 02 18    01 57.73   +12 01.2    1.706    1.531    62.8    35.0    22.5
    2011 02 28    02 27.70   +12 54.8    1.826    1.582    59.9    32.8    22.7
    2011 03 10    02 56.37   +13 40.8    1.950    1.634    56.8    30.6    22.8
    2011 03 20    03 23.89   +14 18.2    2.076    1.686    53.5    28.3    23.0
    
    Carl W. Hergenrother         (C) Copyright 2010 MPC           M.P.E.C. 2010-M25
    

    Read MPEC 2010-M24 Read MPEC 2010-M26


    MPEC number:

    Enter an MPEC number in one of the following forms:

    • 1997-B01 (the full form)
    • J97B01 (the packed version of the full form)
    • B01 (the abbreviated form)